CZ-6A R/B

Last updated on Mon Dec 15 2025 00:02:13 GMT+0000 (Coordinated Universal Time)

1 66958U 25287F 25348.06588066 .00000234 00000+0 15279-3 0 9994 2 66958 86.5059 345.5964 0107260 98.1704 263.1653 13.94919786 722
UTC large
Height (km)
Speed (km/s)
/
Latitude / Longitude
Inclination (degrees)
Orbital Period (minutes)
Azimuth
Elevation
Range (km)
Doppler Factor

Next 0 passes for location: London (51.5072 / 0.1276)

Sorry there are no passes over London.